Location: Nachod
(50.4170°N, 16.1670°E)
Time: 00:59:50
(UTC+01:00)

ISS - Visible Passes

Search period start: 22 January 2021 00:00
Search period end: 01 February 2021 00:00
Orbit: 418 x 421 km, 51.6° (Epoch: 22 January)

Date Brightness Start Highest point End Pass type
(mag) Time Alt. Az. Time Alt. Az. Time Alt. Az.
22 Jan -1.7 17:08:58 10° S 17:11:12 17° SE 17:13:27 10° E visible
22 Jan -3.3 18:44:12 10° WSW 18:47:08 57° SSW 18:47:08 57° SSW visible
23 Jan -3.2 17:56:58 10° SW 18:00:14 47° SSE 18:01:46 26° E visible
23 Jan -1.0 19:33:37 10° W 19:34:44 19° W 19:34:44 19° W visible
24 Jan -2.7 17:09:50 10° SW 17:12:56 34° SSE 17:16:02 10° E visible
24 Jan -3.6 18:46:12 10° W 18:49:20 73° WNW 18:49:20 73° WNW visible
25 Jan -3.8 17:58:47 10° WSW 18:02:11 83° SSE 18:03:53 27° ENE visible
25 Jan -1.0 19:35:43 10° W 19:36:51 20° WNW 19:36:51 20° WNW visible
26 Jan -3.5 17:11:26 10° WSW 17:14:47 65° SSE 17:18:09 10° ENE visible
26 Jan -3.5 18:48:16 10° W 18:51:24 65° NW 18:51:24 65° NW visible
27 Jan -3.7 18:00:48 10° W 18:04:12 73° N 18:05:55 26° ENE visible
27 Jan -1.0 19:37:44 10° WNW 19:38:53 20° WNW 19:38:53 20° WNW visible
28 Jan -3.7 17:13:20 10° W 17:16:44 82° NNW 17:20:08 10° ENE visible
28 Jan -3.6 18:50:17 10° WNW 18:53:25 70° NW 18:53:25 70° NW visible
29 Jan -3.7 18:02:50 10° W 18:06:12 70° N 18:07:58 26° E visible
29 Jan -1.1 19:39:41 10° WNW 19:40:56 20° W 19:40:56 20° W visible
30 Jan -3.7 18:52:13 10° WNW 18:55:31 76° SW 18:55:31 76° SW visible
31 Jan -3.8 18:04:45 10° WNW 18:08:09 87° NNE 18:10:09 23° ESE visible
31 Jan -1.1 19:41:44 10° W 19:43:07 20° W 19:43:07 20° W visible
